This is the latest recevied weather packets stored in our database for station/object OE6PLD-13. If no packets are shown the sender has not sent any weather packets the latest 1 day(s).
| Time | Temp. | Humidity | Pressure | Rain* | Wind** | Luminosity | Snow |
|---|---|---|---|---|---|---|---|
| 1778045301 | 12.22° C | 83% | 1014.2 hPa | 0.76 mm | - | 202 W/m² | - |
| 1778044934 | 11.67° C | 85% | 1014.4 hPa | 0.76 mm | - | 144 W/m² | - |
| 1778044384 | 10.56° C | 87% | 1014.1 hPa | 0.76 mm | - | 113 W/m² | - |
| 1778044017 | 10° C | 88% | 1014.3 hPa | 0.76 mm | - | 80 W/m² | - |
| 1778043834 | 10° C | 89% | 1014.4 hPa | 0.76 mm | - | 142 W/m² | - |
| 1778043467 | 10° C | 89% | 1014 hPa | 0.76 mm | - | 70 W/m² | - |
| 1778043284 | 10° C | 89% | 1014.2 hPa | 0.76 mm | - | 60 W/m² | - |
| 1778043100 | 9.44° C | 89% | 1014.1 hPa | 0.76 mm | - | 61 W/m² | - |
| 1778042917 | 9.44° C | 89% | 1014.1 hPa | 0.76 mm | - | 62 W/m² | - |
| 1778042734 | 9.44° C | 90% | 1014.4 hPa | 0.76 mm | - | 55 W/m² | - |
| 1778042550 | 9.44° C | 90% | 1014.2 hPa | 0.76 mm | - | 82 W/m² | - |
| 1778042367 | 9.44° C | 90% | 1014.3 hPa | 0.76 mm | - | 68 W/m² | - |
| 1778042000 | 8.89° C | 91% | 1014.4 hPa | 0.76 mm | - | 48 W/m² | - |
| 1778041817 | 8.89° C | 91% | 1014.3 hPa | 0.76 mm | - | 42 W/m² | - |
| 1778041450 | 8.33° C | 92% | 1014.1 hPa | 0.76 mm | - | 31 W/m² | - |
| 1778041267 | 8.33° C | 92% | 1014.1 hPa | 0.76 mm | - | 26 W/m² | - |
| 1778040717 | 8.33° C | 93% | 1014.2 hPa | 0.76 mm | - | 26 W/m² | - |
| 1778040533 | 8.33° C | 93% | 1014.1 hPa | 0.76 mm | - | 19 W/m² | - |
| 1778040350 | 7.78° C | 93% | 1014 hPa | 0.76 mm | - | 16 W/m² | - |
| 1778040167 | 7.78° C | 92% | 1014.1 hPa | 0.76 mm | - | 12 W/m² | - |
| 1778039983 | 8.33° C | 93% | 1014.1 hPa | 0.76 mm | - | 9 W/m² | - |
| 1778039800 | 8.33° C | 93% | 1014.1 hPa | 0.76 mm | - | 8 W/m² | - |
| 1778039616 | 8.33° C | 93% | 1014.1 hPa | 0.76 mm | - | 6 W/m² | - |
| 1778039433 | 8.33° C | 93% | 1014 hPa | 0.76 mm | - | 4 W/m² | - |
| 1778039250 | 8.33° C | 93% | 1014.1 hPa | 0.76 mm | - | 3 W/m² | - |
* Rain latest hour (hover to see other rain measurements)
** Current wind speed in m/s (hover to see current wind gust speed)